Location: Byszew
(52.1813°N, 19.2693°E)
Time: 04:03:38
(UTC+00:00)

Cosmos 1844 - Pass Details

Date: 22 June 2021
Orbit: 823 x 867 km, 70.9° (Epoch: 03 August)

Event Time Altitude Azimuth Distance (km) Brightness Sun altitude
Rises 19:54:45 0° 324° (NW) 3,373 9.7 -5.7°
Reaches altitude 10° 19:57:21 10° 316° (NW) 2,439 7.9 -6.0°
Maximum altitude 20:02:23 36° 252° (WSW) 1,291 4.9 -6.5°
Drops below altitude 10° 20:07:27 10° 187° (S) 2,443 5.7 -6.9°
Enters shadow 20:09:31 - 180° (S) 3,181 6.2 -7.1°
